GFSFLT2_sfc_dewp_198.txt.gz
Dewpoint
21 21 21 19 17 15 14 12 12 14 19 24 24 23 21 29 31 32 35 44 51 57 61 64 64 66 68 71 73 73 73 74
23 24 23 19 18 14 17 22 19 16 28 31 28 27 29 29 33 34 38 48 52 53 57 63 64 66 67 70 72 73 72 73
26 25 24 23 23 18 14 16 19 19 29 33 37 29 29 31 35 34 41 48 52 53 56 61 64 65 67 68 71 72 72 73
25 26 26 28 25 24 22 26 21 22 24 29 32 30 28 31 37 41 47 48 50 54 57 59 63 63 66 68 68 71 72 73
26 25 34 32 31 31 26 23 31 23 26 39 41 38 44 41 43 51 48 50 49 52 58 60 62 64 64 68 68 70 73 72
26 29 30 30 31 32 31 30 28 26 28 35 40 42 44 45 46 47 53 55 51 51 56 61 65 68 69 68 68 71 72 72
31 30 30 29 29 30 32 33 32 30 29 32 35 35 39 46 50 50 51 50 53 57 66 67 72 72 72 71 71 71 73 72
33 31 30 29 29 28 28 29 29 29 28 38 50 52 42 46 59 63 60 62 63 61 63 67 69 74 73 74 76 74 74 72
30 30 29 28 28 27 27 29 32 36 41 54 55 57 61 58 55 60 64 66 67 68 68 70 66 72 72 74 75 77 78 76
26 28 25 26 31 36 33 43 44 45 50 54 53 59 60 61 57 60 61 63 66 68 70 71 69 68 72 73 76 77 77 77
28 25 25 29 41 40 41 41 46 46 47 48 50 59 57 60 63 63 61 61 60 60 67 72 72 72 73 74 75 75 75 76
29 28 26 42 44 44 41 39 51 48 46 47 48 47 56 57 60 62 63 61 59 59 60 65 70 73 73 72 73 73 74 75
26 25 37 41 39 45 36 44 48 50 50 46 46 48 50 54 56 56 59 61 60 58 61 66 67 70 72 73 73 75 75 75
30 31 34 40 37 37 43 50 48 50 52 45 46 46 46 47 50 56 57 58 58 57 59 63 66 68 69 71 74 75 76 75
32 32 45 45 44 45 46 46 47 48 46 47 44 44 45 47 48 49 51 54 53 55 59 62 65 68 70 73 71 72 72 72
41 40 41 44 44 46 48 48 49 47 47 47 46 46 46 45 46 48 49 52 50 55 58 61 63 65 68 70 72 73 73 72
42 43 45 45 47 47 48 50 50 51 51 49 48 49 50 50 53 49 51 53 55 57 59 62 64 64 66 67 68 70 71 71
43 47 48 48 49 50 50 51 52 52 52 52 52 51 52 52 54 54 55 54 55 58 59 61 63 64 67 66 65 67 68 64
48 49 49 51 51 52 52 52 52 52 53 52 53 53 53 54 54 54 55 55 57 57 58 61 63 62 65 68 66 66 63 63

GFSFLT2_sfc_dewp_201.txt.gz
Dewpoint
23 24 24 22 19 18 14 15 15 18 29 33 30 25 25 29 32 35 46 58 59 60 60 61 62 63 68 70 70 71 71 72
23 23 23 23 24 16 20 22 19 24 30 32 33 34 33 30 34 36 43 58 59 60 60 61 62 64 65 70 71 71 71 71
28 25 26 24 22 25 18 19 16 18 29 35 38 38 37 38 41 38 48 53 59 59 61 61 63 64 65 69 70 71 71 72
28 28 33 33 32 31 34 28 27 23 26 36 38 37 39 42 43 45 50 52 55 57 61 61 62 64 65 69 70 71 71 71
29 29 30 32 32 32 32 32 32 31 32 39 36 38 38 40 47 53 51 52 53 55 60 61 62 64 64 68 70 71 71 71
29 31 32 31 31 30 30 31 31 32 35 37 54 55 53 53 54 54 54 54 57 56 57 60 62 63 64 66 68 70 71 70
34 32 31 30 29 30 29 29 29 30 41 53 57 57 55 52 56 57 57 57 58 61 62 61 62 63 65 66 67 69 70 70
33 30 28 26 30 37 39 42 42 39 47 51 57 57 55 53 55 59 60 58 59 61 62 68 70 67 70 66 68 69 69 70
30 30 27 27 39 39 39 46 47 46 48 48 54 54 56 54 56 58 59 62 62 63 62 69 68 70 71 71 73 71 71 70
32 30 25 39 41 41 40 47 48 48 49 50 53 54 56 61 59 61 60 62 63 62 63 67 69 71 71 71 72 73 74 73
28 28 28 39 39 39 40 43 48 47 47 50 51 53 56 58 61 62 63 63 63 64 62 64 67 70 71 72 72 71 71 73
34 30 29 39 36 40 42 38 46 44 47 49 52 47 51 58 59 59 61 62 62 61 58 57 66 68 70 70 71 71 71 72
32 30 41 42 37 39 37 42 48 46 46 46 49 49 47 56 56 57 58 59 60 61 59 57 64 66 68 69 68 70 72 72
34 31 37 46 44 43 46 47 48 49 49 47 47 47 48 47 48 52 55 55 55 57 56 57 63 65 65 67 70 71 71 70
39 42 46 46 46 47 47 46 48 48 48 49 50 49 48 48 48 48 49 51 52 52 53 57 61 62 64 67 68 68 70 68
43 44 46 46 47 48 49 48 49 50 51 50 50 50 50 50 51 51 51 52 52 52 53 56 59 60 62 62 64 66 68 68
42 45 47 47 48 49 50 51 51 52 51 51 51 52 52 52 52 52 52 53 53 54 54 56 61 59 61 60 63 62 64 67
43 48 48 48 49 51 51 51 51 50 50 51 52 52 52 52 53 54 54 55 54 54 54 58 56 61 62 63 61 60 62 64
48 49 48 50 50 51 50 50 50 50 49 48 48 50 50 50 51 53 53 55 56 56 55 56 59 60 60 62 63 62 62 61

GFSFLT2_sfc_dewp_207.txt.gz
Dewpoint
26 23 22 22 19 22 15 21 15 18 31 33 52 51 51 52 54 54 54 56 57 59 61 61 62 63 64 66 66 67 68 68
30 30 31 28 23 23 22 20 22 21 36 49 52 52 51 54 54 55 56 57 59 58 59 61 62 63 64 66 67 67 68 67
31 30 31 33 33 32 27 24 26 24 41 51 52 53 52 52 55 54 56 58 60 60 59 62 65 65 64 66 67 68 68 68
30 32 32 32 32 36 30 31 30 29 40 53 53 53 51 52 56 57 56 58 61 63 63 64 65 64 65 67 67 68 69 69
26 30 32 35 41 37 32 32 34 29 34 53 52 53 51 54 57 57 58 59 61 62 64 63 63 63 63 63 65 66 70 70
28 29 32 35 43 44 35 35 41 45 47 52 50 52 52 55 57 57 59 60 61 61 61 64 65 64 63 63 63 64 62 63
33 36 39 38 45 46 45 43 41 44 47 49 52 52 53 54 56 57 59 60 60 61 59 60 65 64 64 64 62 63 63 63
24 30 39 39 39 45 46 46 46 45 44 48 52 53 52 55 57 57 59 60 61 62 63 61 63 65 65 65 64 62 62 62
26 30 35 29 39 43 45 45 46 41 44 48 48 49 52 55 58 57 58 60 61 61 62 64 63 63 61 59 60 60 60 60
27 27 21 34 39 46 45 45 46 46 47 47 47 49 52 55 58 56 57 57 59 60 61 62 61 61 61 61 59 59 60 59
24 25 37 39 37 37 39 43 47 45 47 47 48 49 48 56 52 52 57 58 58 59 60 61 62 62 61 60 61 61 60 60
29 25 26 36 41 44 42 39 47 47 47 48 48 44 46 50 52 52 53 55 55 55 57 58 60 64 63 62 62 62 62 64
32 33 39 43 44 45 34 35 46 48 48 48 46 47 48 51 51 52 53 53 53 53 53 54 57 62 64 62 62 63 65 64
30 33 31 45 44 40 43 46 47 48 48 48 50 50 50 50 51 51 52 52 52 52 52 52 54 55 60 61 63 64 65 65
32 32 43 46 45 47 48 47 48 48 50 50 50 49 50 50 51 51 51 52 53 52 52 53 54 54 55 58 61 62 61 60
41 43 45 45 47 48 49 49 50 51 50 49 48 48 48 48 48 48 50 52 53 53 53 54 55 55 54 55 58 61 60 60
39 43 46 46 48 49 49 50 49 49 49 49 49 49 49 49 49 48 49 50 52 51 51 53 55 55 54 54 56 58 60 60
37 42 43 44 49 49 48 48 49 49 49 49 50 48 48 48 49 49 49 50 50 50 51 52 53 53 54 55 56 58 60 59
44 47 47 48 49 49 48 49 49 48 48 49 49 48 48 48 49 50 49 49 50 50 51 52 52 53 54 56 57 57 57 58

GFSFLT2_sfc_dewp_210.txt.gz
Dewpoint
28 24 23 22 19 25 15 21 15 20 43 44 51 51 51 51 54 55 56 60 58 61 62 63 64 64 66 66 67 68 68 68
30 33 33 25 22 26 26 25 26 27 45 47 50 51 51 50 53 56 57 59 62 61 61 62 64 66 66 66 67 68 68 68
32 30 31 30 31 31 28 28 28 27 41 50 52 53 52 51 54 56 58 59 61 62 64 64 66 66 67 67 68 68 68 69
32 32 34 33 32 34 29 31 30 30 37 53 53 53 52 53 55 57 59 59 60 62 63 62 63 64 65 67 67 68 70 70
28 29 31 37 41 36 32 33 34 28 34 53 52 52 53 53 56 57 58 59 61 59 60 64 64 63 62 61 63 63 64 68
26 28 32 38 44 46 34 31 36 40 46 48 51 51 52 53 57 57 58 59 60 61 61 60 64 65 65 65 64 65 65 65
37 39 39 43 45 46 44 41 37 44 46 48 50 51 53 53 56 56 57 59 60 61 61 62 62 65 65 66 65 64 64 64
26 38 39 39 41 44 45 46 45 45 44 48 49 49 48 51 55 53 54 57 60 59 60 60 62 63 64 64 64 64 64 63
26 38 35 27 38 44 44 46 45 42 44 47 46 47 48 50 54 52 52 55 57 58 59 60 61 63 61 61 62 64 61 61
26 24 21 30 39 45 44 45 46 45 46 48 48 48 49 53 54 52 52 53 54 56 57 58 61 62 63 62 62 61 61 62
24 26 34 36 39 41 41 38 47 46 46 47 48 49 48 54 52 52 53 54 54 56 56 57 59 61 62 62 62 63 63 62
29 26 27 36 41 45 41 37 46 48 47 47 48 42 44 49 51 52 52 53 54 53 55 55 56 58 61 63 63 62 63 63
32 29 35 41 44 45 35 34 46 48 48 48 46 47 49 51 51 51 52 53 53 53 53 54 55 57 57 60 62 62 63 64
31 31 28 44 45 38 41 45 47 48 49 49 49 50 50 49 49 50 51 51 52 51 53 54 55 55 56 56 58 60 62 63
31 32 40 45 43 47 47 47 48 48 49 50 49 47 48 48 49 49 49 49 50 52 52 54 53 55 55 56 57 58 59 61
40 43 44 46 48 49 49 49 50 49 49 49 48 49 49 49 48 48 49 49 50 51 52 51 52 53 55 56 56 57 58 59
38 43 46 46 48 49 50 49 49 49 49 49 49 49 49 48 48 48 49 49 50 50 50 51 52 52 53 54 55 56 58 59
37 42 42 44 48 49 47 48 48 49 48 49 49 48 49 48 49 49 49 50 50 50 50 51 51 52 53 54 55 55 57 58
43 46 46 47 49 49 48 48 49 48 49 47 47 47 47 47 47 50 49 49 49 49 50 51 52 53 53 54 55 56 57 57

GFSFLT2_sfc_dewp_216.txt.gz
Dewpoint
27 25 26 25 25 22 14 17 16 33 43 46 48 48 50 51 53 54 58 62 63 64 65 65 65 65 68 69 70 71 70 72
32 32 28 26 26 24 22 24 23 27 38 41 48 48 49 51 53 54 56 59 62 64 65 66 66 66 67 69 70 70 71 71
32 31 31 31 30 30 26 26 25 24 35 49 49 49 48 49 52 54 56 57 58 61 64 66 67 67 68 69 69 70 70 71
28 33 36 34 34 31 28 32 32 29 37 48 49 47 47 49 50 52 55 57 57 58 60 62 65 66 67 69 68 69 72 72
29 30 33 32 36 32 29 29 32 29 39 48 49 48 49 48 50 51 51 53 54 57 59 61 63 65 65 65 67 69 70 67
31 36 34 34 35 36 29 27 30 29 44 49 48 46 45 45 48 48 50 52 53 53 56 59 61 63 66 67 67 68 68 68
36 34 35 35 35 35 33 35 32 32 34 46 48 45 44 44 46 48 49 50 52 53 55 57 59 61 62 63 65 66 67 66
36 36 35 34 36 36 36 36 36 34 37 46 45 46 44 44 46 47 50 51 52 53 55 56 57 59 60 61 62 64 66 66
33 35 34 33 36 37 37 38 32 31 40 44 42 44 45 46 46 47 49 50 50 52 53 55 57 58 58 60 61 63 66 66
34 38 33 36 38 38 34 36 38 40 41 43 45 47 47 46 47 47 49 50 52 52 54 55 55 56 58 59 61 62 64 65
32 32 32 31 37 36 37 33 39 39 42 44 46 46 42 45 45 48 50 52 52 52 53 55 56 57 58 59 61 62 62 64
32 29 25 36 39 40 39 33 42 43 44 44 44 37 32 44 48 49 51 52 52 51 51 51 53 54 56 57 58 60 62 63
30 26 31 40 41 41 35 41 45 44 44 44 43 42 44 48 49 50 51 51 52 51 51 52 53 54 55 56 56 58 60 62
30 31 30 43 42 38 48 47 46 46 46 44 44 44 48 49 48 49 49 50 51 51 52 52 53 53 53 54 56 59 59 60
34 38 46 47 46 47 44 46 46 46 45 43 42 47 48 47 46 46 49 50 50 50 50 52 53 54 52 55 56 56 57 58
40 45 46 46 47 47 47 46 48 46 44 43 47 47 46 44 44 46 48 49 49 49 49 50 51 52 53 54 56 56 56 57
42 46 47 47 48 48 49 48 47 46 46 47 46 45 43 43 46 49 50 50 50 50 49 49 51 51 52 53 55 55 56 56
33 47 48 47 48 50 50 48 46 46 46 45 43 42 44 45 49 50 50 50 50 50 50 50 50 51 52 52 52 53 55 55
43 47 46 48 49 50 50 47 45 45 44 40 40 40 41 45 49 50 51 51 50 50 50 50 51 51 51 52 53 53 54 55

GFSFLT2_sfc_dewp_219.txt.gz
Dewpoint
26 25 25 25 22 20 14 18 18 39 44 45 47 48 49 50 51 52 56 60 63 64 64 66 65 64 66 68 69 71 71 74
26 25 25 24 27 26 37 30 23 29 39 39 47 47 49 50 51 52 53 54 57 61 64 66 68 69 69 68 69 70 70 71
28 26 40 32 25 34 28 31 30 29 45 50 49 48 47 48 50 51 52 53 55 57 60 64 66 68 69 68 67 68 69 73
26 30 29 26 30 38 27 40 44 36 43 48 48 46 47 48 48 49 51 51 52 55 59 60 63 65 66 67 66 68 71 70
26 27 28 27 28 29 27 25 32 26 44 48 48 48 47 46 47 49 48 51 51 52 55 58 60 63 63 65 66 67 70 72
37 40 45 39 31 32 31 26 27 33 43 47 47 46 45 45 46 46 48 50 51 52 54 57 59 61 62 63 65 68 67 67
36 41 41 32 32 32 33 32 31 31 31 43 49 46 44 43 44 45 47 48 51 52 53 55 57 60 60 61 62 63 65 66
35 32 31 30 31 33 32 32 31 32 32 46 47 44 42 43 44 45 47 49 50 50 52 53 55 57 58 59 60 62 63 65
34 32 33 31 31 31 33 35 34 27 41 43 42 42 44 44 44 47 46 48 50 52 53 56 56 57 57 57 59 61 63 64
32 35 33 33 37 35 34 30 30 34 41 41 42 44 43 44 47 46 47 50 52 52 54 55 55 55 58 58 59 60 62 64
33 31 32 33 35 30 30 29 32 33 37 39 43 43 46 44 45 47 48 52 53 53 53 55 55 56 57 57 59 61 61 63
34 32 30 36 34 35 32 26 35 38 39 41 41 36 41 43 46 47 50 52 53 52 52 52 55 55 55 56 56 58 60 61
32 32 31 38 38 37 28 41 42 40 42 42 42 44 44 44 48 47 46 47 49 50 50 51 53 53 54 55 56 57 58 59
30 31 31 42 39 33 48 46 44 44 44 45 44 42 42 46 47 45 44 46 50 50 51 52 53 53 54 54 56 58 59 58
37 41 47 44 44 46 44 46 46 46 44 45 41 42 45 46 44 42 45 49 50 50 51 51 52 52 52 54 55 55 56 57
37 42 42 43 45 45 45 44 47 45 44 41 41 43 44 41 41 44 49 51 50 51 51 51 52 53 53 53 55 54 55 56
39 46 45 44 46 46 47 47 46 46 43 43 44 43 40 41 44 48 50 51 51 51 51 51 52 52 53 53 54 53 53 53
35 46 48 45 47 48 49 48 47 44 42 44 41 39 40 42 47 50 50 52 52 52 52 52 51 51 52 53 53 53 53 53
43 45 46 46 48 49 50 49 45 41 43 39 38 38 38 42 46 49 51 51 52 51 52 51 51 51 52 53 53 54 54 54

GFSFLT2_sfc_dewp_222.txt.gz
Dewpoint
19 19 19 22 23 20 21 20 19 41 44 48 47 48 49 50 51 53 56 59 61 63 65 68 68 70 70 70 72 73 72 75
24 21 22 22 26 23 26 28 29 38 46 47 50 48 49 49 50 51 52 54 56 59 62 65 68 69 70 69 70 70 71 72
33 26 23 25 28 34 30 39 42 38 47 53 53 55 48 49 50 50 51 52 54 57 58 61 63 65 67 67 70 70 70 72
27 28 28 30 36 38 36 44 45 37 44 54 53 52 47 48 48 49 50 50 50 53 56 57 59 61 62 65 65 68 70 71
20 27 39 35 35 38 35 37 39 36 50 57 49 47 48 47 49 50 49 50 51 52 57 58 59 62 60 62 65 66 70 69
34 42 46 40 36 39 39 28 31 36 46 48 47 47 46 46 47 46 48 50 52 53 56 59 61 63 64 63 64 65 66 66
45 45 43 37 37 44 46 34 30 30 31 47 48 47 45 44 44 45 46 47 52 51 55 58 59 62 62 62 62 63 64 64
41 42 46 44 34 38 39 30 30 32 42 48 48 46 42 42 44 45 48 48 49 52 55 57 59 61 61 62 62 63 63 64
35 39 46 42 34 30 30 32 33 32 42 44 42 41 43 44 45 47 46 47 50 53 57 59 59 60 59 60 61 62 64 64
32 35 29 30 36 33 32 32 30 30 41 43 44 44 43 47 47 47 47 49 54 55 57 59 57 58 60 59 60 61 62 63
29 28 30 28 35 32 30 30 29 28 37 39 43 43 46 45 46 47 48 51 51 50 51 57 58 59 59 59 58 59 60 62
33 29 28 35 33 32 28 28 27 34 37 39 40 36 43 44 45 46 46 47 47 48 49 50 55 54 56 55 56 57 59 60
30 29 30 37 35 33 29 40 41 40 42 42 42 46 44 43 46 46 44 44 48 50 51 53 54 53 54 54 55 58 58 58
32 33 32 40 37 36 48 45 45 44 45 44 45 42 41 45 46 43 43 45 49 50 52 52 53 52 53 54 56 57 57 57
41 43 47 45 45 46 44 47 45 45 45 45 41 41 43 44 43 41 44 50 50 50 52 52 53 53 53 54 56 56 54 53
39 43 43 43 44 44 44 46 47 45 44 41 41 41 43 42 40 44 48 50 50 52 52 53 54 54 54 54 55 54 54 53
37 46 45 43 46 45 46 47 47 46 43 42 41 42 40 40 43 47 49 50 52 53 52 53 53 53 53 54 53 52 52 53
36 48 50 46 46 46 48 48 47 45 43 44 40 39 38 40 46 48 49 51 52 52 52 52 52 51 53 53 53 53 52 52
44 45 47 46 46 48 49 49 48 42 43 41 38 37 37 39 45 46 47 49 51 52 52 52 52 52 52 54 53 53 52 52